Location: ?????
(31.8092°N, 35.2590°E)
Time: 20:00:12
(UTC+00:00)

Okean 2 Rocket - Pass Details

Date: 20 June 2021
Orbit: 617 x 641 km, 82.5° (Epoch: 02 August)

Event Time Altitude Azimuth Distance (km) Brightness Sun altitude
Rises 17:24:26 0° 351° (N) 2,942 7.2 -7.5°
Reaches altitude 10° 17:26:41 10° 350° (N) 2,032 6.4 -7.9°
Maximum altitude 17:31:10 75° 266° (W) 666 3.4 -8.7°
Drops below altitude 10° 17:35:40 10° 181° (S) 2,024 5.4 -9.5°
Sets 17:37:54 0° 179° (S) 2,928 6.2 -9.9°
